Flag for U.S.A. Weather past 2 weeks in El Monte, California, U.S.A.

Now
71 °F

Sunny.


Feels Like: 75 °F
Forecast: 59 / 81 °F
Wind: 6 mph from West

Location: Fullerton Municipal Airport

Current Time: Oct 20, 2014 at 7:53:42 PM

Latest Report: Oct 20, 2014 at 6:53 PM


Visibility: 10 mi

Pressure: 29.86 "Hg

Humidity: 66%

Dew point: 59 °F

Location of El MonteLocation

Historic Weather in El Monte — Graph

°F

El Monte temperature yesterday

Maximum temperature yesterday: 79 °F (at 12:53 PM)
Minimum temperature yesterday: 60 °F (at 6:53 AM)
Average temperature yesterday: 70 °F

Past Weeks' High & Low Weather Summary

 TemperatureHumidityPressure
High95 °F (Oct 7, 1:53 PM)87% (Oct 13, 3:53 AM)30.01 "Hg (Oct 13, 3:53 AM)
Low60 °F (Oct 19, 6:53 AM)10% (Oct 6, 12:53 PM)29.78 "Hg (Oct 8, 4:53 PM)
Average72 °F64%29.90 "Hg
* Reported Oct 5 5:53 PM — Oct 20 5:53 PM, El Monte, Weather by CustomWeather, © 2014

Note: Actual official high and low records may vary slightly from our data, if they occured in-between our weather recording intervals... More about our weather records

Advertising

El Monte weather history for previous 24 hours

 ConditionsComfort  
Time TempWeatherWind HumidityBarometerVisibility
5:53 PM
Oct 20
72 °FSunny.5 mph66%29.84 "Hg10 mi
4:53 PM75 °FSunny.7 mph60%29.85 "Hg10 mi
3:53 PM77 °FSunny.8 mph58%29.85 "Hg10 mi
2:53 PM79 °FSunny.5 mph52%29.85 "Hg10 mi
1:53 PM78 °FSunny.6 mph52%29.87 "Hg10 mi
12:53 PM75 °FSunny.No wind60%29.90 "Hg10 mi
11:53 AM74 °FPassing clouds.6 mph62%29.93 "Hg10 mi
10:53 AM72 °FPartly sunny.No wind64%29.94 "Hg10 mi
9:53 AM73 °FOvercast.3 mph62%29.93 "Hg10 mi
8:53 AM69 °FOvercast.No wind73%29.93 "Hg10 mi
7:53 AM67 °FOvercast.No wind81%29.90 "Hg7 mi
6:53 AM66 °FOvercast.3 mph81%29.89 "Hg8 mi
5:53 AM63 °FOvercast.No wind84%29.89 "Hg10 mi
4:53 AM63 °FClear.No wind84%29.87 "Hg10 mi
3:53 AM64 °FClear.No wind84%29.87 "Hg10 mi
2:53 AM64 °FClear.No wind84%29.87 "Hg10 mi
1:53 AM64 °FClear.No wind87%29.88 "Hg10 mi
12:53 AM66 °FClear.No wind84%29.88 "Hg10 mi
11:53 PM
Oct 19
67 °FClear.No wind81%29.88 "Hg10 mi
10:53 PM68 °FClear.No wind78%29.88 "Hg10 mi
9:53 PM69 °FClear.No wind76%29.87 "Hg10 mi
7:53 PM71 °FClear.6 mph71%29.85 "Hg10 mi
Weather by CustomWeather, © 2014

See weather overviewHow to use our weather pages